Time,TemperatureF,DewpointF,PressureIn,WindDirection,WindDirectionDegrees,WindSpeedMPH,WindSpeedGustMPH,Humidity,HourlyPrecipIn,Conditions,Clouds,dailyrainin,SoftwareType,DateUTC
2013-03-02 00:00:00,25.3,9.6,30.07,NE,55,0.0,0.0,51,0.00,,---,0.00,VWS V14.01,2013-03-02 05:00:00,
2013-03-02 00:01:00,25.3,9.6,30.07,NE,55,0.0,0.0,51,0.00,,---,0.00,VWS V14.01,2013-03-02 05:01:00,
2013-03-02 00:03:00,25.3,10.1,30.07,NE,55,0.0,9.2,52,0.00,,---,0.00,VWS V14.01,2013-03-02 05:03:00,
2013-03-02 00:06:00,25.3,10.1,30.07,NE,55,2.7,9.2,52,0.00,,---,0.00,VWS V14.01,2013-03-02 05:06:00,
2013-03-02 00:11:00,25.3,10.1,30.07,NE,55,0.0,9.2,52,0.00,,---,0.00,VWS V14.01,2013-03-02 05:11:00,
2013-03-02 00:16:00,25.3,10.1,30.07,NE,55,4.0,9.2,52,0.00,,---,0.00,VWS V14.01,2013-03-02 05:16:00,
2013-03-02 00:21:00,25.3,10.1,30.07,NE,54,5.8,9.2,52,0.00,,---,0.00,VWS V14.01,2013-03-02 05:21:00,
2013-03-02 00:26:00,25.2,9.9,30.07,NE,54,3.1,9.2,52,0.00,,---,0.00,VWS V14.01,2013-03-02 05:26:00,
2013-03-02 00:31:00,25.2,10.4,30.07,NE,54,3.6,9.2,53,0.00,,---,0.00,VWS V14.01,2013-03-02 05:31:00,
2013-03-02 00:36:00,25.2,10.4,30.07,NE,53,3.1,9.2,53,0.00,,---,0.00,VWS V14.01,2013-03-02 05:36:00,
2013-03-02 00:41:00,25.2,10.4,30.07,NE,53,0.0,9.2,53,0.00,,---,0.00,VWS V14.01,2013-03-02 05:41:00,
2013-03-02 00:46:00,25.2,10.4,30.07,NE,53,0.0,9.2,53,0.00,,---,0.00,VWS V14.01,2013-03-02 05:46:00,
2013-03-02 00:51:00,25.0,10.2,30.07,NE,53,0.0,9.2,53,0.00,,---,0.00,VWS V14.01,2013-03-02 05:51:00,
2013-03-02 00:56:00,25.2,10.4,30.07,NE,53,0.0,9.2,53,0.00,,---,0.00,VWS V14.01,2013-03-02 05:56:00,
2013-03-02 01:01:00,25.2,10.4,30.07,NE,52,2.2,2.7,53,0.00,,---,0.00,VWS V14.01,2013-03-02 06:01:00,
2013-03-02 01:06:00,25.2,10.4,30.07,NE,52,4.0,4.0,53,0.00,,---,0.00,VWS V14.01,2013-03-02 06:06:00,
2013-03-02 01:11:00,25.2,10.4,30.07,NE,52,0.0,4.0,53,0.00,,---,0.00,VWS V14.01,2013-03-02 06:11:00,
2013-03-02 01:16:00,25.2,9.9,30.07,NE,52,0.0,4.0,52,0.00,,---,0.00,VWS V14.01,2013-03-02 06:16:00,
2013-03-02 01:21:00,25.2,9.9,30.07,NE,52,0.0,4.0,52,0.00,,---,0.00,VWS V14.01,2013-03-02 06:21:00,
2013-03-02 01:26:00,25.2,9.9,30.07,NE,52,0.0,4.0,52,0.00,,---,0.00,VWS V14.01,2013-03-02 06:26:00,
2013-03-02 01:32:00,25.2,9.9,30.07,NE,52,3.1,4.9,52,0.00,,---,0.00,VWS V14.01,2013-03-02 06:32:00,
2013-03-02 01:37:00,25.2,10.4,30.07,NE,52,0.0,4.9,53,0.00,,---,0.00,VWS V14.01,2013-03-02 06:37:00,
2013-03-02 01:42:00,25.2,10.4,30.07,NE,52,0.0,4.9,53,0.00,,---,0.00,VWS V14.01,2013-03-02 06:42:00,
2013-03-02 01:47:00,25.3,10.6,30.07,NE,52,0.0,4.9,53,0.00,,---,0.00,VWS V14.01,2013-03-02 06:47:00,
2013-03-02 01:52:00,25.3,10.6,30.07,NE,52,0.0,4.9,53,0.00,,---,0.00,VWS V14.01,2013-03-02 06:52:00,
2013-03-02 01:57:00,25.3,10.6,30.07,NE,52,0.0,4.9,53,0.00,,---,0.00,VWS V14.01,2013-03-02 06:57:00,
2013-03-02 02:02:00,25.3,10.6,30.07,NE,52,0.0,2.7,53,0.00,,---,0.00,VWS V14.01,2013-03-02 07:02:00,
2013-03-02 02:07:00,25.3,11.0,30.07,NE,51,0.0,3.6,54,0.00,,---,0.00,VWS V14.01,2013-03-02 07:07:00,
2013-03-02 02:12:00,25.3,11.0,30.07,NE,51,0.0,3.6,54,0.00,,---,0.00,VWS V14.01,2013-03-02 07:12:00,
2013-03-02 02:17:00,25.3,11.0,30.07,NE,51,0.0,3.6,54,0.00,,---,0.00,VWS V14.01,2013-03-02 07:17:00,
2013-03-02 02:22:00,25.3,11.0,30.07,NE,51,0.0,4.0,54,0.00,,---,0.00,VWS V14.01,2013-03-02 07:22:00,
2013-03-02 02:27:00,25.5,11.6,30.07,NE,51,0.0,4.5,55,0.00,,---,0.00,VWS V14.01,2013-03-02 07:27:00,
2013-03-02 02:32:00,25.5,11.2,30.07,NE,51,0.0,4.5,54,0.00,,---,0.00,VWS V14.01,2013-03-02 07:32:00,
2013-03-02 02:37:00,25.5,11.2,30.07,NE,51,0.0,5.4,54,0.00,,---,0.00,VWS V14.01,2013-03-02 07:37:00,
2013-03-02 02:42:00,25.5,11.2,30.07,NE,50,0.0,6.3,54,0.00,,---,0.00,VWS V14.01,2013-03-02 07:42:00,
2013-03-02 02:47:00,25.5,11.2,30.07,NE,50,3.1,6.3,54,0.00,,---,0.00,VWS V14.01,2013-03-02 07:47:00,
2013-03-02 02:52:00,25.5,11.2,30.07,NE,50,0.0,6.3,54,0.00,,---,0.00,VWS V14.01,2013-03-02 07:52:00,
2013-03-02 02:57:00,25.7,11.4,30.07,NE,50,5.4,6.3,54,0.00,,---,0.00,VWS V14.01,2013-03-02 07:57:00,
2013-03-02 03:02:00,25.7,11.4,30.04,NE,49,0.0,0.0,54,0.00,,---,0.00,VWS V14.01,2013-03-02 08:02:00,
2013-03-02 03:07:00,25.7,11.4,30.04,NE,49,5.4,5.4,54,0.00,,---,0.00,VWS V14.01,2013-03-02 08:07:00,
2013-03-02 03:12:00,25.7,11.4,30.04,NE,48,3.1,5.8,54,0.00,,---,0.00,VWS V14.01,2013-03-02 08:12:00,
2013-03-02 03:17:00,25.7,10.9,30.04,NE,47,3.6,6.3,53,0.00,,---,0.00,VWS V14.01,2013-03-02 08:17:00,
2013-03-02 03:22:00,25.7,10.9,30.04,NE,47,3.6,7.2,53,0.00,,---,0.00,VWS V14.01,2013-03-02 08:22:00,
2013-03-02 03:27:00,25.7,10.9,30.04,NE,46,3.1,8.3,53,0.00,,---,0.00,VWS V14.01,2013-03-02 08:27:00,
2013-03-02 03:32:00,25.7,10.9,30.04,NE,45,0.0,8.3,53,0.00,,---,0.00,VWS V14.01,2013-03-02 08:32:00,
2013-03-02 03:37:00,25.7,10.9,30.04,NE,45,0.0,8.3,53,0.00,,---,0.00,VWS V14.01,2013-03-02 08:37:00,
2013-03-02 03:42:00,25.7,10.9,30.04,NE,44,3.1,8.3,53,0.00,,---,0.00,VWS V14.01,2013-03-02 08:42:00,
2013-03-02 03:48:00,25.7,10.9,30.04,NE,44,5.8,8.3,53,0.00,,---,0.00,VWS V14.01,2013-03-02 08:48:00,
2013-03-02 03:53:00,25.5,11.2,30.04,NE,43,2.7,8.3,54,0.00,,---,0.00,VWS V14.01,2013-03-02 08:53:00,
2013-03-02 03:58:00,25.5,11.2,30.04,NE,43,3.6,8.3,54,0.00,,---,0.00,VWS V14.01,2013-03-02 08:58:00,
2013-03-02 04:03:00,25.5,11.2,30.04,NE,42,2.7,5.4,54,0.00,,---,0.00,VWS V14.01,2013-03-02 09:03:00,
2013-03-02 04:08:00,25.5,11.2,30.04,NE,42,0.0,5.4,54,0.00,,---,0.00,VWS V14.01,2013-03-02 09:08:00,
2013-03-02 04:13:00,25.5,11.2,30.04,NE,42,5.4,5.4,54,0.00,,---,0.00,VWS V14.01,2013-03-02 09:13:00,
2013-03-02 04:18:00,25.5,11.2,30.04,NE,42,4.0,5.4,54,0.00,,---,0.00,VWS V14.01,2013-03-02 09:18:00,
2013-03-02 04:23:00,25.3,11.5,30.04,NE,41,2.7,7.6,55,0.00,,---,0.00,VWS V14.01,2013-03-02 09:23:00,
2013-03-02 04:28:00,25.3,11.0,30.04,NE,40,6.3,8.7,54,0.00,,---,0.00,VWS V14.01,2013-03-02 09:28:00,
2013-03-02 04:33:00,25.3,11.0,30.04,NE,40,0.0,8.7,54,0.00,,---,0.00,VWS V14.01,2013-03-02 09:33:00,
2013-03-02 04:38:00,25.3,11.0,30.04,NE,39,2.7,8.7,54,0.00,,---,0.00,VWS V14.01,2013-03-02 09:38:00,
2013-03-02 04:43:00,25.3,11.5,30.04,NE,39,2.2,8.7,55,0.00,,---,0.00,VWS V14.01,2013-03-02 09:43:00,
2013-03-02 04:48:00,25.3,11.5,30.04,NE,39,3.6,8.7,55,0.00,,---,0.00,VWS V14.01,2013-03-02 09:48:00,
2013-03-02 04:53:00,25.2,11.3,30.04,NE,38,5.4,8.7,55,0.00,,---,0.00,VWS V14.01,2013-03-02 09:53:00,
2013-03-02 04:58:00,25.2,10.9,30.04,NE,38,0.0,8.7,54,0.00,,---,0.00,VWS V14.01,2013-03-02 09:58:00,
2013-03-02 05:03:00,25.2,10.9,30.04,NE,38,0.0,5.8,54,0.00,,---,0.00,VWS V14.01,2013-03-02 10:03:00,
2013-03-02 05:08:00,25.2,10.9,30.04,NNE,18,5.4,6.3,54,0.00,,---,0.00,VWS V14.01,2013-03-02 10:08:00,
2013-03-02 05:14:00,25.2,10.9,30.04,NNE,31,3.1,6.3,54,0.00,,---,0.00,VWS V14.01,2013-03-02 10:14:00,
2013-03-02 05:19:00,25.2,10.9,30.04,NNE,16,2.7,6.3,54,0.00,,---,0.00,VWS V14.01,2013-03-02 10:19:00,
2013-03-02 05:24:00,25.2,10.9,30.04,North,3,0.0,8.3,54,0.00,,---,0.00,VWS V14.01,2013-03-02 10:24:00,
2013-03-02 05:29:00,25.2,10.9,30.04,North,7,0.0,8.3,54,0.00,,---,0.00,VWS V14.01,2013-03-02 10:29:00,
2013-03-02 05:34:00,25.2,10.9,30.04,North,0,4.0,8.3,54,0.00,,---,0.00,VWS V14.01,2013-03-02 10:34:00,
2013-03-02 05:40:00,25.2,10.9,30.04,NNE,14,0.0,8.3,54,0.00,,---,0.00,VWS V14.01,2013-03-02 10:40:00,
2013-03-02 05:45:00,25.2,10.9,30.04,NNE,29,3.1,8.3,54,0.00,,---,0.00,VWS V14.01,2013-03-02 10:45:00,
2013-03-02 05:50:00,25.2,10.9,30.04,NNE,16,2.7,8.3,54,0.00,,---,0.00,VWS V14.01,2013-03-02 10:50:00,
2013-03-02 05:55:00,25.2,10.9,30.04,NNE,18,2.2,8.3,54,0.00,,---,0.00,VWS V14.01,2013-03-02 10:55:00,
2013-03-02 06:00:00,25.2,11.3,30.04,North,0,3.6,5.4,55,0.00,,---,0.00,VWS V14.01,2013-03-02 11:00:00,
2013-03-02 06:05:00,25.2,10.9,30.04,NNE,17,6.3,6.3,54,0.00,,---,0.00,VWS V14.01,2013-03-02 11:05:00,
2013-03-02 06:10:00,25.2,11.3,30.04,NNE,25,3.1,8.7,55,0.00,,---,0.00,VWS V14.01,2013-03-02 11:10:00,
2013-03-02 06:15:00,25.2,11.3,30.04,NNW,333,5.4,8.7,55,0.00,,---,0.00,VWS V14.01,2013-03-02 11:15:00,
2013-03-02 06:20:00,25.2,11.3,30.04,North,8,5.4,8.7,55,0.00,,---,0.00,VWS V14.01,2013-03-02 11:20:00,
2013-03-02 06:25:00,25.2,11.3,30.04,North,2,0.0,8.7,55,0.00,,---,0.00,VWS V14.01,2013-03-02 11:25:00,
2013-03-02 06:30:00,25.2,11.3,30.04,NNE,12,0.0,8.7,55,0.00,,---,0.00,VWS V14.01,2013-03-02 11:30:00,
2013-03-02 06:35:00,25.2,11.3,30.04,North,353,3.1,8.7,55,0.00,,---,0.00,VWS V14.01,2013-03-02 11:35:00,
2013-03-02 06:40:00,25.2,11.8,30.04,North,4,4.0,8.7,56,0.00,,---,0.00,VWS V14.01,2013-03-02 11:40:00,
2013-03-02 06:45:00,25.2,11.8,30.04,NNE,21,0.0,8.7,56,0.00,,---,0.00,VWS V14.01,2013-03-02 11:45:00,
2013-03-02 06:50:00,25.2,11.8,30.04,North,0,3.1,8.7,56,0.00,,---,0.00,VWS V14.01,2013-03-02 11:50:00,
2013-03-02 06:55:00,25.2,11.8,30.04,North,8,4.0,8.7,56,0.00,,---,0.00,VWS V14.01,2013-03-02 11:55:00,
2013-03-02 07:00:00,25.2,12.2,30.04,NE,48,2.2,3.1,57,0.00,,---,0.00,VWS V14.01,2013-03-02 12:00:00,
2013-03-02 07:05:00,25.2,12.2,30.04,North,0,4.0,7.6,57,0.00,,---,0.00,VWS V14.01,2013-03-02 12:05:00,
2013-03-02 07:10:00,25.0,12.0,30.04,North,11,6.7,7.6,57,0.00,,---,0.00,VWS V14.01,2013-03-02 12:10:00,
2013-03-02 07:15:00,25.0,12.0,30.04,NE,47,0.0,8.1,57,0.00,,---,0.00,VWS V14.01,2013-03-02 12:15:00,
2013-03-02 07:20:00,25.2,12.2,30.04,NE,45,2.7,8.1,57,0.00,,---,0.00,VWS V14.01,2013-03-02 12:20:00,
2013-03-02 07:25:00,25.0,12.0,30.04,NNE,21,4.0,8.1,57,0.00,,---,0.00,VWS V14.01,2013-03-02 12:25:00,
2013-03-02 07:30:00,25.2,11.8,30.04,North,0,3.6,8.1,56,0.00,,---,0.00,VWS V14.01,2013-03-02 12:30:00,
2013-03-02 07:35:00,25.2,11.8,30.04,North,0,5.4,8.1,56,0.00,,---,0.00,VWS V14.01,2013-03-02 12:35:00,
2013-03-02 07:40:00,25.2,11.8,30.04,NE,34,4.0,8.1,56,0.00,,---,0.00,VWS V14.01,2013-03-02 12:40:00,
2013-03-02 07:45:00,25.2,11.8,30.07,North,353,5.4,8.1,56,0.00,,---,0.00,VWS V14.01,2013-03-02 12:45:00,
2013-03-02 07:50:00,25.2,11.8,30.07,NNE,27,4.0,8.1,56,0.00,,---,0.00,VWS V14.01,2013-03-02 12:50:00,
2013-03-02 07:55:00,25.2,11.8,30.07,NNE,31,2.2,8.7,56,0.00,,---,0.00,VWS V14.01,2013-03-02 12:55:00,
2013-03-02 08:00:00,25.2,11.8,30.07,NNE,14,0.0,0.0,56,0.00,,---,0.00,VWS V14.01,2013-03-02 13:00:00,
2013-03-02 08:05:00,25.2,12.2,30.07,NE,35,0.0,4.9,57,0.00,,---,0.00,VWS V14.01,2013-03-02 13:05:00,
2013-03-02 08:11:00,25.3,12.3,30.07,North,357,0.0,5.8,57,0.00,,---,0.00,VWS V14.01,2013-03-02 13:11:00,
2013-03-02 08:16:00,25.3,12.3,30.07,North,0,3.6,8.7,57,0.00,,---,0.00,VWS V14.01,2013-03-02 13:16:00,
2013-03-02 08:21:00,25.3,12.3,30.07,North,357,0.0,8.7,57,0.00,,---,0.00,VWS V14.01,2013-03-02 13:21:00,
2013-03-02 08:26:00,25.3,12.3,30.07,North,8,0.0,8.7,57,0.00,,---,0.00,VWS V14.01,2013-03-02 13:26:00,
2013-03-02 08:31:00,25.3,12.3,30.07,North,0,5.4,8.7,57,0.00,,---,0.00,VWS V14.01,2013-03-02 13:31:00,
2013-03-02 08:36:00,25.3,12.3,30.07,NNE,12,3.1,8.7,57,0.00,,---,0.00,VWS V14.01,2013-03-02 13:36:00,
2013-03-02 08:41:00,25.3,12.8,30.07,North,357,3.1,8.7,58,0.00,,---,0.00,VWS V14.01,2013-03-02 13:41:00,
2013-03-02 08:46:00,25.2,12.6,30.07,NNE,15,3.6,8.7,58,0.00,,---,0.00,VWS V14.01,2013-03-02 13:46:00,
2013-03-02 08:51:00,25.2,12.6,30.07,NNE,25,2.7,8.7,58,0.00,,---,0.00,VWS V14.01,2013-03-02 13:51:00,
2013-03-02 08:56:00,25.2,12.6,30.07,NNW,338,5.4,8.7,58,0.00,,---,0.00,VWS V14.01,2013-03-02 13:56:00,
2013-03-02 09:01:00,25.2,12.6,30.07,NNE,31,5.4,5.4,58,0.00,,---,0.00,VWS V14.01,2013-03-02 14:01:00,
2013-03-02 09:06:00,25.3,13.2,30.07,North,353,3.1,5.4,59,0.00,,---,0.00,VWS V14.01,2013-03-02 14:06:00,
2013-03-02 09:11:00,25.3,13.2,30.07,NNE,13,3.1,5.8,59,0.00,,---,0.00,VWS V14.01,2013-03-02 14:11:00,
2013-03-02 09:16:00,25.5,13.4,30.07,North,10,2.7,5.8,59,0.00,,---,0.00,VWS V14.01,2013-03-02 14:16:00,
2013-03-02 09:21:00,25.7,13.5,30.07,North,0,2.7,5.8,59,0.00,,---,0.00,VWS V14.01,2013-03-02 14:21:00,
2013-03-02 09:26:00,25.9,13.3,30.07,NNE,12,0.0,5.8,58,0.00,,---,0.00,VWS V14.01,2013-03-02 14:26:00,
2013-03-02 09:31:00,25.9,13.3,30.07,North,357,7.6,7.6,58,0.00,,---,0.00,VWS V14.01,2013-03-02 14:31:00,
2013-03-02 09:36:00,25.9,13.3,30.07,North,357,4.0,9.6,58,0.00,,---,0.00,VWS V14.01,2013-03-02 14:36:00,
2013-03-02 09:41:00,26.1,13.4,30.07,North,353,6.3,9.6,58,0.00,,---,0.00,VWS V14.01,2013-03-02 14:41:00,
2013-03-02 09:46:00,26.4,13.8,30.07,NNE,32,4.5,9.6,58,0.00,,---,0.00,VWS V14.01,2013-03-02 14:46:00,
2013-03-02 09:51:00,26.8,13.7,30.07,North,350,2.2,9.6,57,0.00,,---,0.00,VWS V14.01,2013-03-02 14:51:00,
2013-03-02 09:56:00,27.0,13.4,30.07,NNE,15,6.3,9.6,56,0.00,,---,0.00,VWS V14.01,2013-03-02 14:56:00,
2013-03-02 10:01:00,27.1,13.6,30.07,NE,36,5.4,5.4,56,0.00,,---,0.00,VWS V14.01,2013-03-02 15:01:00,
2013-03-02 10:06:00,27.3,13.3,30.07,NNE,28,4.0,7.2,55,0.00,,---,0.00,VWS V14.01,2013-03-02 15:06:00,
2013-03-02 10:11:00,27.5,13.5,30.07,North,353,5.8,9.2,55,0.00,,---,0.00,VWS V14.01,2013-03-02 15:11:00,
2013-03-02 10:16:00,27.5,12.1,30.07,North,9,0.0,10.5,52,0.00,,---,0.00,VWS V14.01,2013-03-02 15:16:00,
2013-03-02 10:21:00,27.5,11.6,30.07,NNE,16,11.0,11.0,51,0.00,,---,0.00,VWS V14.01,2013-03-02 15:21:00,
2013-03-02 10:26:00,27.5,11.2,30.07,NE,44,5.4,11.0,50,0.00,,---,0.00,VWS V14.01,2013-03-02 15:26:00,
2013-03-02 10:31:00,27.7,11.8,30.07,NNE,15,5.4,11.0,51,0.00,,---,0.00,VWS V14.01,2013-03-02 15:31:00,
2013-03-02 10:36:00,27.7,11.8,30.07,NNE,30,0.0,11.0,51,0.00,,---,0.00,VWS V14.01,2013-03-02 15:36:00,
2013-03-02 10:41:00,27.9,12.0,30.07,North,8,3.1,11.0,51,0.00,,---,0.00,VWS V14.01,2013-03-02 15:41:00,
2013-03-02 10:46:00,27.9,12.0,30.07,North,4,3.6,11.0,51,0.00,,---,0.00,VWS V14.01,2013-03-02 15:46:00,
2013-03-02 10:51:00,28.4,12.5,30.07,North,7,0.0,11.0,51,0.00,,---,0.00,VWS V14.01,2013-03-02 15:51:00,
2013-03-02 10:56:00,28.4,11.5,30.07,North,3,4.9,11.0,49,0.00,,---,0.00,VWS V14.01,2013-03-02 15:56:00,
2013-03-02 11:01:00,28.4,11.5,30.07,North,1,5.4,5.8,49,0.00,,---,0.00,VWS V14.01,2013-03-02 16:01:00,
2013-03-02 11:06:00,28.6,11.2,30.07,NNE,24,4.0,8.3,48,0.00,,---,0.00,VWS V14.01,2013-03-02 16:06:00,
2013-03-02 11:11:00,28.4,11.0,30.07,North,3,5.4,8.7,48,0.00,,---,0.00,VWS V14.01,2013-03-02 16:11:00,
2013-03-02 11:16:00,28.4,11.0,30.07,NNE,13,2.7,8.7,48,0.00,,---,0.00,VWS V14.01,2013-03-02 16:16:00,
2013-03-02 11:22:00,28.4,11.0,30.07,North,10,5.8,9.6,48,0.00,,---,0.00,VWS V14.01,2013-03-02 16:22:00,
2013-03-02 11:27:00,28.4,11.0,30.07,NNE,22,5.8,9.6,48,0.00,,---,0.00,VWS V14.01,2013-03-02 16:27:00,
2013-03-02 11:32:00,28.6,11.2,30.07,NNE,18,3.6,9.6,48,0.00,,---,0.00,VWS V14.01,2013-03-02 16:32:00,
2013-03-02 11:37:00,28.6,11.2,30.07,NNE,30,6.3,9.6,48,0.00,,---,0.00,VWS V14.01,2013-03-02 16:37:00,
2013-03-02 11:42:00,28.6,11.2,30.07,North,353,3.6,9.6,48,0.00,,---,0.00,VWS V14.01,2013-03-02 16:42:00,
2013-03-02 11:47:00,28.8,10.8,30.07,North,8,3.6,9.6,46,0.00,,---,0.00,VWS V14.01,2013-03-02 16:47:00,
2013-03-02 11:52:00,28.8,10.8,30.07,North,7,5.8,9.6,46,0.00,,---,0.00,VWS V14.01,2013-03-02 16:52:00,
2013-03-02 11:57:00,28.9,11.0,30.07,NNE,25,3.1,9.6,46,0.00,,---,0.00,VWS V14.01,2013-03-02 16:57:00,
2013-03-02 12:02:00,28.9,11.0,30.07,North,1,6.7,8.7,46,0.00,,---,0.00,VWS V14.01,2013-03-02 17:02:00,
2013-03-02 12:07:00,28.6,10.1,30.07,NNE,32,5.4,8.7,45,0.00,,---,0.00,VWS V14.01,2013-03-02 17:07:00,
2013-03-02 12:12:00,28.6,10.6,30.07,NNW,331,4.0,8.7,46,0.00,,---,0.00,VWS V14.01,2013-03-02 17:12:00,
2013-03-02 12:17:00,28.9,11.0,30.04,North,3,4.0,8.7,46,0.00,,---,0.00,VWS V14.01,2013-03-02 17:17:00,
2013-03-02 12:22:00,28.9,11.0,30.04,NNE,14,8.1,8.7,46,0.00,,---,0.00,VWS V14.01,2013-03-02 17:22:00,
2013-03-02 12:27:00,28.9,10.5,30.04,NNE,33,2.2,8.7,45,0.00,,---,0.00,VWS V14.01,2013-03-02 17:27:00,
2013-03-02 12:32:00,29.1,11.1,30.04,North,353,3.1,8.7,46,0.00,,---,0.00,VWS V14.01,2013-03-02 17:32:00,
2013-03-02 12:37:00,29.1,10.6,30.04,NE,44,3.6,8.7,45,0.00,,---,0.00,VWS V14.01,2013-03-02 17:37:00,
2013-03-02 12:42:00,29.1,10.6,30.04,NNE,18,2.7,8.7,45,0.00,,---,0.00,VWS V14.01,2013-03-02 17:42:00,
2013-03-02 12:47:00,28.9,10.5,30.04,North,357,0.0,8.7,45,0.00,,---,0.00,VWS V14.01,2013-03-02 17:47:00,
2013-03-02 12:52:00,28.9,10.5,30.04,North,0,3.1,8.7,45,0.00,,---,0.00,VWS V14.01,2013-03-02 17:52:00,
2013-03-02 12:57:00,28.9,10.5,30.04,North,357,0.0,8.7,45,0.00,,---,0.00,VWS V14.01,2013-03-02 17:57:00,
2013-03-02 13:02:00,28.9,10.5,30.04,NE,36,2.7,4.0,45,0.00,,---,0.00,VWS V14.01,2013-03-02 18:02:00,
2013-03-02 13:07:00,28.8,10.3,30.04,NNE,22,5.4,8.7,45,0.00,,---,0.00,VWS V14.01,2013-03-02 18:07:00,
2013-03-02 13:12:00,28.8,10.3,30.04,NE,40,3.1,8.7,45,0.00,,---,0.00,VWS V14.01,2013-03-02 18:12:00,
2013-03-02 13:17:00,28.6,10.1,30.04,NNE,16,0.0,8.7,45,0.00,,---,0.00,VWS V14.01,2013-03-02 18:17:00,
2013-03-02 13:22:00,28.8,10.3,30.04,North,0,3.1,8.7,45,0.00,,---,0.00,VWS V14.01,2013-03-02 18:22:00,
2013-03-02 13:27:00,28.8,10.3,30.04,NE,40,4.9,8.7,45,0.00,,---,0.00,VWS V14.01,2013-03-02 18:27:00,
2013-03-02 13:32:00,28.8,10.3,30.04,North,7,3.1,8.7,45,0.00,,---,0.00,VWS V14.01,2013-03-02 18:32:00,
2013-03-02 13:37:00,28.6,10.1,30.04,NNE,18,3.1,8.7,45,0.00,,---,0.00,VWS V14.01,2013-03-02 18:37:00,
2013-03-02 13:42:00,28.6,10.1,30.04,NNE,17,4.0,8.7,45,0.00,,---,0.00,VWS V14.01,2013-03-02 18:42:00,
2013-03-02 13:47:00,28.6,10.1,30.04,NE,37,5.4,8.7,45,0.00,,---,0.00,VWS V14.01,2013-03-02 18:47:00,
2013-03-02 13:53:00,28.6,10.1,30.04,North,3,2.7,8.7,45,0.00,,---,0.00,VWS V14.01,2013-03-02 18:53:00,
2013-03-02 13:58:00,28.6,10.1,30.04,North,0,0.0,8.7,45,0.00,,---,0.00,VWS V14.01,2013-03-02 18:58:00,
2013-03-02 14:03:00,29.1,10.6,30.04,NNE,14,2.7,5.8,45,0.00,,---,0.00,VWS V14.01,2013-03-02 19:03:00,
2013-03-02 14:08:00,29.1,10.6,30.04,NNE,19,2.7,8.1,45,0.00,,---,0.00,VWS V14.01,2013-03-02 19:08:00,
2013-03-02 14:13:00,29.1,10.6,30.04,NNE,23,3.6,8.1,45,0.00,,---,0.00,VWS V14.01,2013-03-02 19:13:00,
2013-03-02 14:18:00,29.1,10.6,30.04,NNE,20,2.7,8.1,45,0.00,,---,0.00,VWS V14.01,2013-03-02 19:18:00,
2013-03-02 14:23:00,28.9,10.5,30.04,NE,35,4.0,8.1,45,0.00,,---,0.00,VWS V14.01,2013-03-02 19:23:00,
2013-03-02 14:28:00,28.6,10.1,30.04,NNE,22,3.6,8.1,45,0.00,,---,0.00,VWS V14.01,2013-03-02 19:28:00,
2013-03-02 14:33:00,28.8,10.3,30.04,North,3,4.9,8.1,45,0.00,,---,0.00,VWS V14.01,2013-03-02 19:33:00,
2013-03-02 14:38:00,28.8,10.3,30.04,NNE,21,0.0,8.1,45,0.00,,---,0.00,VWS V14.01,2013-03-02 19:38:00,
2013-03-02 14:43:00,29.1,10.6,30.04,NNE,25,5.4,8.1,45,0.00,,---,0.00,VWS V14.01,2013-03-02 19:43:00,
2013-03-02 14:48:00,29.5,10.9,30.04,NNE,22,0.0,8.1,45,0.00,,---,0.00,VWS V14.01,2013-03-02 19:48:00,
2013-03-02 14:53:00,29.5,10.9,30.04,North,8,6.3,8.1,45,0.00,,---,0.00,VWS V14.01,2013-03-02 19:53:00,
2013-03-02 14:58:00,29.3,10.8,30.04,NNE,22,4.0,11.0,45,0.00,,---,0.00,VWS V14.01,2013-03-02 19:58:00,
2013-03-02 15:03:00,28.9,10.5,30.04,NNE,12,5.4,5.8,45,0.00,,---,0.00,VWS V14.01,2013-03-02 20:03:00,
2013-03-02 15:08:00,28.8,10.3,30.04,NNE,19,4.0,8.3,45,0.00,,---,0.00,VWS V14.01,2013-03-02 20:08:00,
2013-03-02 15:13:00,28.6,10.1,30.04,NE,43,0.0,8.3,45,0.00,,---,0.00,VWS V14.01,2013-03-02 20:13:00,
2013-03-02 15:18:00,28.6,10.1,30.04,NNE,12,5.8,8.3,45,0.00,,---,0.00,VWS V14.01,2013-03-02 20:18:00,
2013-03-02 15:23:00,28.4,10.0,30.04,NNE,25,2.7,8.3,45,0.00,,---,0.00,VWS V14.01,2013-03-02 20:23:00,
2013-03-02 15:28:00,28.4,10.0,30.04,North,2,5.8,8.3,45,0.00,,---,0.00,VWS V14.01,2013-03-02 20:28:00,
2013-03-02 15:33:00,28.4,10.0,30.04,NNE,24,6.3,8.3,45,0.00,,---,0.00,VWS V14.01,2013-03-02 20:33:00,
2013-03-02 15:38:00,28.4,10.5,30.04,North,0,5.4,10.1,46,0.00,,---,0.00,VWS V14.01,2013-03-02 20:38:00,
2013-03-02 15:43:00,28.4,10.5,30.04,NNE,23,3.6,10.1,46,0.00,,---,0.00,VWS V14.01,2013-03-02 20:43:00,
2013-03-02 15:48:00,28.4,10.5,30.04,North,1,4.0,10.1,46,0.00,,---,0.00,VWS V14.01,2013-03-02 20:48:00,
2013-03-02 15:53:00,28.2,10.3,30.04,North,9,2.7,10.1,46,0.00,,---,0.00,VWS V14.01,2013-03-02 20:53:00,
2013-03-02 15:59:00,28.0,10.2,30.04,NNE,26,2.7,10.1,46,0.00,,---,0.00,VWS V14.01,2013-03-02 20:59:00,
2013-03-02 16:04:00,27.9,9.5,30.01,NNE,32,4.0,8.1,45,0.00,,---,0.00,VWS V14.01,2013-03-02 21:04:00,
2013-03-02 16:09:00,27.9,9.5,30.01,North,11,4.9,8.1,45,0.00,,---,0.00,VWS V14.01,2013-03-02 21:09:00,
2013-03-02 16:14:00,27.7,9.3,30.01,NNE,22,5.4,8.1,45,0.00,,---,0.00,VWS V14.01,2013-03-02 21:14:00,
2013-03-02 16:19:00,27.7,9.3,30.04,North,353,4.0,8.1,45,0.00,,---,0.00,VWS V14.01,2013-03-02 21:19:00,
2013-03-02 16:24:00,27.5,9.1,30.04,North,357,4.9,8.3,45,0.00,,---,0.00,VWS V14.01,2013-03-02 21:24:00,
2013-03-02 16:29:00,27.5,9.1,30.04,NNE,29,4.0,10.5,45,0.00,,---,0.00,VWS V14.01,2013-03-02 21:29:00,
2013-03-02 16:34:00,27.3,9.0,30.01,NNE,25,2.7,10.5,45,0.00,,---,0.00,VWS V14.01,2013-03-02 21:34:00,
2013-03-02 16:39:00,27.3,9.0,30.01,North,7,6.7,10.5,45,0.00,,---,0.00,VWS V14.01,2013-03-02 21:39:00,
2013-03-02 16:44:00,27.1,8.8,30.01,NNE,12,6.3,10.5,45,0.00,,---,0.00,VWS V14.01,2013-03-02 21:44:00,
2013-03-02 16:49:00,27.0,8.6,30.04,North,0,0.0,10.5,45,0.00,,---,0.00,VWS V14.01,2013-03-02 21:49:00,
2013-03-02 16:54:00,27.0,8.6,30.04,North,0,6.3,10.5,45,0.00,,---,0.00,VWS V14.01,2013-03-02 21:54:00,
2013-03-02 16:59:00,27.0,9.2,30.04,NNE,18,2.7,10.5,46,0.00,,---,0.00,VWS V14.01,2013-03-02 21:59:00,
2013-03-02 17:04:00,27.0,9.2,30.04,NNE,17,0.0,8.1,46,0.00,,---,0.00,VWS V14.01,2013-03-02 22:04:00,
2013-03-02 17:09:00,27.0,9.2,30.04,NNE,27,5.4,8.7,46,0.00,,---,0.00,VWS V14.01,2013-03-02 22:09:00,
2013-03-02 17:14:00,26.8,9.0,30.04,NNE,32,4.0,8.7,46,0.00,,---,0.00,VWS V14.01,2013-03-02 22:14:00,
2013-03-02 17:19:00,26.8,9.0,30.04,NE,44,2.2,8.7,46,0.00,,---,0.00,VWS V14.01,2013-03-02 22:19:00,
2013-03-02 17:24:00,26.8,9.0,30.04,North,8,3.1,8.7,46,0.00,,---,0.00,VWS V14.01,2013-03-02 22:24:00,
2013-03-02 17:29:00,26.8,9.0,30.04,North,7,2.7,8.7,46,0.00,,---,0.00,VWS V14.01,2013-03-02 22:29:00,
2013-03-02 17:34:00,26.8,9.5,30.04,North,7,0.0,8.7,48,0.00,,---,0.00,VWS V14.01,2013-03-02 22:34:00,
2013-03-02 17:39:00,26.6,9.3,30.04,NNE,24,0.0,8.7,48,0.00,,---,0.00,VWS V14.01,2013-03-02 22:39:00,
2013-03-02 17:44:00,26.6,9.3,30.04,NNE,12,6.3,8.7,48,0.00,,---,0.00,VWS V14.01,2013-03-02 22:44:00,
2013-03-02 17:49:00,26.4,9.2,30.04,North,353,5.8,8.7,48,0.00,,---,0.00,VWS V14.01,2013-03-02 22:49:00,
2013-03-02 17:54:00,26.2,9.0,30.04,NNE,30,3.6,8.7,48,0.00,,---,0.00,VWS V14.01,2013-03-02 22:54:00,
2013-03-02 17:59:00,26.2,9.0,30.04,North,357,3.6,4.0,48,0.00,,---,0.00,VWS V14.01,2013-03-02 22:59:00,
2013-03-02 18:04:00,26.1,8.9,30.04,North,6,5.4,6.3,48,0.00,,---,0.00,VWS V14.01,2013-03-02 23:04:00,
2013-03-02 18:10:00,26.1,8.9,30.04,North,3,4.9,9.6,48,0.00,,---,0.00,VWS V14.01,2013-03-02 23:10:00,
2013-03-02 18:15:00,26.1,9.4,30.04,NNE,18,8.1,9.6,49,0.00,,---,0.00,VWS V14.01,2013-03-02 23:15:00,
2013-03-02 18:20:00,25.9,9.2,30.07,NNE,21,2.2,9.6,49,0.00,,---,0.00,VWS V14.01,2013-03-02 23:20:00,
2013-03-02 18:25:00,25.9,9.2,30.07,NNE,13,2.7,9.6,49,0.00,,---,0.00,VWS V14.01,2013-03-02 23:25:00,
2013-03-02 18:30:00,25.9,9.2,30.07,NNE,22,4.0,9.6,49,0.00,,---,0.00,VWS V14.01,2013-03-02 23:30:00,
2013-03-02 18:35:00,25.9,9.2,30.07,NNE,12,3.6,9.6,49,0.00,,---,0.00,VWS V14.01,2013-03-02 23:35:00,
2013-03-02 18:40:00,25.7,9.0,30.07,NE,45,0.0,9.6,49,0.00,,---,0.00,VWS V14.01,2013-03-02 23:40:00,
2013-03-02 18:45:00,25.7,9.0,30.07,North,6,4.0,9.6,49,0.00,,---,0.00,VWS V14.01,2013-03-02 23:45:00,
2013-03-02 18:50:00,25.7,9.0,30.07,NE,37,2.7,9.6,49,0.00,,---,0.00,VWS V14.01,2013-03-02 23:50:00,
2013-03-02 18:55:00,25.5,8.9,30.07,North,9,3.6,9.6,49,0.00,,---,0.00,VWS V14.01,2013-03-02 23:55:00,
2013-03-02 19:00:00,25.5,8.9,30.07,North,6,5.8,5.8,49,0.00,,---,0.00,VWS V14.01,2013-03-03 00:00:00,
2013-03-02 19:05:00,25.5,8.9,30.07,NNE,33,4.0,5.8,49,0.00,,---,0.00,VWS V14.01,2013-03-03 00:05:00,
2013-03-02 19:10:00,25.3,8.7,30.07,NNE,31,3.6,5.8,49,0.00,,---,0.00,VWS V14.01,2013-03-03 00:10:00,
2013-03-02 19:15:00,25.3,8.7,30.07,NNE,31,0.0,6.3,49,0.00,,---,0.00,VWS V14.01,2013-03-03 00:15:00,
2013-03-02 19:20:00,25.3,8.7,30.07,NNE,24,0.0,6.3,49,0.00,,---,0.00,VWS V14.01,2013-03-03 00:20:00,
2013-03-02 19:25:00,25.3,8.7,30.07,North,10,5.4,7.2,49,0.00,,---,0.00,VWS V14.01,2013-03-03 00:25:00,
2013-03-02 19:30:00,25.3,8.7,30.07,NNE,20,0.0,7.2,49,0.00,,---,0.00,VWS V14.01,2013-03-03 00:30:00,
2013-03-02 19:35:00,25.2,8.5,30.07,NNE,19,4.9,7.6,49,0.00,,---,0.00,VWS V14.01,2013-03-03 00:35:00,
2013-03-02 19:40:00,25.2,8.0,30.07,NNE,14,3.1,7.6,48,0.00,,---,0.00,VWS V14.01,2013-03-03 00:40:00,
2013-03-02 19:45:00,25.2,8.0,30.07,North,10,5.4,8.1,48,0.00,,---,0.00,VWS V14.01,2013-03-03 00:45:00,
2013-03-02 19:50:00,25.0,7.8,30.07,NE,38,2.7,8.1,48,0.00,,---,0.00,VWS V14.01,2013-03-03 00:50:00,
2013-03-02 19:55:00,25.0,7.3,30.07,North,353,5.8,8.1,46,0.00,,---,0.00,VWS V14.01,2013-03-03 00:55:00,
2013-03-02 20:00:00,25.0,7.3,30.07,North,6,3.6,5.8,46,0.00,,---,0.00,VWS V14.01,2013-03-03 01:00:00,
2013-03-02 20:05:00,25.0,7.3,30.07,North,3,8.7,8.7,46,0.00,,---,0.00,VWS V14.01,2013-03-03 01:05:00,
2013-03-02 20:10:00,24.8,7.2,30.07,NE,43,5.4,10.5,46,0.00,,---,0.00,VWS V14.01,2013-03-03 01:10:00,
2013-03-02 20:15:00,24.8,7.2,30.07,North,9,0.0,10.5,46,0.00,,---,0.00,VWS V14.01,2013-03-03 01:15:00,
2013-03-02 20:20:00,24.8,7.2,30.07,NNE,22,5.8,10.5,46,0.00,,---,0.00,VWS V14.01,2013-03-03 01:20:00,
2013-03-02 20:25:00,24.8,7.7,30.07,NNE,18,5.4,10.5,48,0.00,,---,0.00,VWS V14.01,2013-03-03 01:25:00,
2013-03-02 20:30:00,24.8,7.7,30.07,NNE,21,3.6,10.5,48,0.00,,---,0.00,VWS V14.01,2013-03-03 01:30:00,
2013-03-02 20:35:00,24.8,7.7,30.07,North,7,4.0,10.5,48,0.00,,---,0.00,VWS V14.01,2013-03-03 01:35:00,
2013-03-02 20:40:00,24.8,7.7,30.07,North,6,3.1,10.5,48,0.00,,---,0.00,VWS V14.01,2013-03-03 01:40:00,
2013-03-02 20:45:00,24.8,7.7,30.07,NNE,12,3.6,10.5,48,0.00,,---,0.00,VWS V14.01,2013-03-03 01:45:00,
2013-03-02 20:50:00,24.8,7.7,30.07,North,3,0.0,10.5,48,0.00,,---,0.00,VWS V14.01,2013-03-03 01:50:00,
2013-03-02 20:55:00,24.6,7.5,30.07,North,0,3.6,10.5,48,0.00,,---,0.00,VWS V14.01,2013-03-03 01:55:00,
2013-03-02 21:00:00,24.6,7.5,30.07,NNE,14,7.6,7.6,48,0.00,,---,0.00,VWS V14.01,2013-03-03 02:00:00,
2013-03-02 21:05:00,24.6,7.5,30.07,NNE,28,3.6,7.6,48,0.00,,---,0.00,VWS V14.01,2013-03-03 02:05:00,
2013-03-02 21:11:00,24.6,7.5,30.07,North,7,3.1,7.6,48,0.00,,---,0.00,VWS V14.01,2013-03-03 02:11:00,
2013-03-02 21:16:00,24.6,8.0,30.04,North,357,3.1,7.6,49,0.00,,---,0.00,VWS V14.01,2013-03-03 02:16:00,
2013-03-02 21:21:00,24.6,8.0,30.04,NNE,15,5.8,8.1,49,0.00,,---,0.00,VWS V14.01,2013-03-03 02:21:00,
2013-03-02 21:26:00,24.6,7.5,30.04,NNW,332,3.1,8.1,48,0.00,,---,0.00,VWS V14.01,2013-03-03 02:26:00,
2013-03-02 21:31:00,24.4,7.3,30.07,NNE,20,4.9,8.1,48,0.00,,---,0.00,VWS V14.01,2013-03-03 02:31:00,
2013-03-02 21:36:00,24.4,7.3,30.07,North,5,3.6,8.1,48,0.00,,---,0.00,VWS V14.01,2013-03-03 02:36:00,
2013-03-02 21:41:00,24.4,7.3,30.07,North,7,3.1,8.1,48,0.00,,---,0.00,VWS V14.01,2013-03-03 02:41:00,
2013-03-02 21:46:00,24.4,7.3,30.07,NNE,23,4.9,8.1,48,0.00,,---,0.00,VWS V14.01,2013-03-03 02:46:00,
2013-03-02 21:51:00,24.4,7.3,30.07,North,4,0.0,8.1,48,0.00,,---,0.00,VWS V14.01,2013-03-03 02:51:00,
2013-03-02 21:56:00,24.4,7.3,30.07,North,357,3.6,8.1,48,0.00,,---,0.00,VWS V14.01,2013-03-03 02:56:00,
2013-03-02 22:01:00,24.4,7.3,30.07,NNE,25,5.8,5.8,48,0.00,,---,0.00,VWS V14.01,2013-03-03 03:01:00,
2013-03-02 22:06:00,24.4,7.3,30.07,NNE,14,3.1,7.6,48,0.00,,---,0.00,VWS V14.01,2013-03-03 03:06:00,
2013-03-02 22:11:00,24.4,7.3,30.07,NNE,20,3.6,7.6,48,0.00,,---,0.00,VWS V14.01,2013-03-03 03:11:00,
2013-03-02 22:16:00,24.4,7.3,30.07,North,5,3.6,8.1,48,0.00,,---,0.00,VWS V14.01,2013-03-03 03:16:00,
2013-03-02 22:21:00,24.4,7.3,30.07,North,3,3.6,8.1,48,0.00,,---,0.00,VWS V14.01,2013-03-03 03:21:00,
2013-03-02 22:26:00,24.4,7.3,30.07,North,357,4.0,8.1,48,0.00,,---,0.00,VWS V14.01,2013-03-03 03:26:00,
2013-03-02 22:31:00,24.4,7.3,30.04,North,8,3.1,8.1,48,0.00,,---,0.00,VWS V14.01,2013-03-03 03:31:00,
2013-03-02 22:36:00,24.3,7.2,30.04,North,8,0.0,8.1,48,0.00,,---,0.00,VWS V14.01,2013-03-03 03:36:00,
2013-03-02 22:41:00,24.3,7.2,30.04,North,7,2.2,8.1,48,0.00,,---,0.00,VWS V14.01,2013-03-03 03:41:00,
2013-03-02 22:46:00,24.4,7.8,30.04,NNE,30,3.6,8.1,49,0.00,,---,0.00,VWS V14.01,2013-03-03 03:46:00,
2013-03-02 22:51:00,24.3,7.7,30.04,North,3,3.6,8.1,49,0.00,,---,0.00,VWS V14.01,2013-03-03 03:51:00,
2013-03-02 22:56:00,24.3,8.2,30.04,NNE,12,0.0,8.1,50,0.00,,---,0.00,VWS V14.01,2013-03-03 03:56:00,
2013-03-02 23:01:00,24.3,8.6,30.04,North,4,0.0,0.0,51,0.00,,---,0.00,VWS V14.01,2013-03-03 04:01:00,
2013-03-02 23:06:00,24.3,8.6,30.04,North,4,0.0,0.0,51,0.00,,---,0.00,VWS V14.01,2013-03-03 04:06:00,
2013-03-02 23:11:00,24.3,8.6,30.04,North,4,0.0,0.0,51,0.00,,---,0.00,VWS V14.01,2013-03-03 04:11:00,
2013-03-02 23:16:00,24.3,8.6,30.04,North,10,2.7,5.4,51,0.00,,---,0.00,VWS V14.01,2013-03-03 04:16:00,
2013-03-02 23:21:00,24.3,8.6,30.04,North,353,4.0,5.4,51,0.00,,---,0.00,VWS V14.01,2013-03-03 04:21:00,
2013-03-02 23:26:00,24.3,8.6,30.04,North,353,0.0,5.4,51,0.00,,---,0.00,VWS V14.01,2013-03-03 04:26:00,
2013-03-02 23:31:00,24.3,8.6,30.04,North,357,0.0,5.4,51,0.00,,---,0.00,VWS V14.01,2013-03-03 04:31:00,
2013-03-02 23:36:00,24.3,8.6,30.04,NNE,15,2.7,5.4,51,0.00,,---,0.00,VWS V14.01,2013-03-03 04:36:00,
2013-03-02 23:41:00,24.1,8.5,30.04,North,9,0.0,5.4,51,0.00,,---,0.00,VWS V14.01,2013-03-03 04:41:00,
2013-03-02 23:46:00,24.1,8.5,30.04,NNE,15,0.0,5.4,51,0.00,,---,0.00,VWS V14.01,2013-03-03 04:46:00,
2013-03-02 23:51:00,24.1,8.5,30.04,North,0,0.0,5.4,51,0.00,,---,0.00,VWS V14.01,2013-03-03 04:51:00,
2013-03-02 23:56:00,24.1,8.5,30.04,North,0,0.0,5.4,51,0.00,,---,0.00,VWS V14.01,2013-03-03 04:56:00,